TIANQI 35 (62367 NORAD) Tracking and Keplerian Element Data

This shows tracking and keplerian element data for the satellite.

Feedback or suggestion? Click here.




ElementValue
Catalog62367
NameTIANQI 35
Epoch Orbit662
Epoch Day35.33850534
Epoch Year2025
RAAN16.4067
Inclination44.9861
Eccentricity0.0009752
Argument of Perigee183.4728
Mean Anonmoly176.6039
Mean Motion13.99168063
Decay Rate3.44E-06
L11 62367U 24245C 25035.33850534 .00000344 00000+0 32398-3 0 9995
L22 62367 44.9861 16.4067 0009752 183.4728 176.6039 13.99168063 6620



Live tracking and technical data element details for TIANQI 35 (NORAD 62367). TIANQI 35 can be tracked NOW for your location showing map with azimuth and elevation plus other details from your city location.







IsCatalogInMostPopularTable: catalog: 62367, numindb: 17
Update: records affected: 1



GetName: 62367 TIANQI 35

Hit Count: updated at: Sun, 18 May 2025 22:07:42 GMT